User: anonymous   Login
Location: Unspecified
(0.0000°N, 0.0000°E)
Time: 00:27:51
(UTC+02:00)
Language:

Ariane H10 - Orbit

View from above orbital plane
View from above orbital plane
View from above satellite
View from above satellite

Ground track
Ground track

The orbit data is extracted from the following two-line orbital elements,

1 21727U 91067B   15212.51185663  .00000015  00000-0  27534-3 0  9998
2 21727 004.2581 258.1890 7175430 307.4581 209.2105 02.31597879162020
Epoch (UTC): 31 July 2015 12:17:04
Eccentricity: 0.7175430
inclination: 4.2581°
perigee height: 438 km
apogee height: 35068 km
right ascension of ascending node: 258.1890°
argument of perigee: 307.4581°
revolutions per day: 2.31597879
mean anomaly at epoch: 209.2105°
orbit number at epoch: 16202

The dashed part of the orbit path shows where the satellite is in the earth's shadow,  

DLR